Location: Nianha
(10.8000°N, 4.6333°W)
Time: 00:57:24
(UTC+00:00)

FALCON 9 R/B - Pass Details

Date: 14 November 2019
Orbit: 286 x 10160 km, 34.5° (Epoch: 17 January)

Event Time Altitude Azimuth Distance (km) Brightness Sun altitude
Exits shadow 04:10:45 29° 182° (S) 1,401 3.4 -29.8°
Maximum altitude 04:12:49 43° 131° (SE) 1,394 3.6 -29.3°
Drops below altitude 10° 04:24:25 10° 64° (ENE) 5,541 7.0 -26.6°
Sets 04:32:29 0° 59° (ENE) 8,311 7.9 -24.7°
